TimeWITA,TemperatureF,Dew PointF,Humidity,Sea Level PressureIn,VisibilityMPH,Wind Direction,Wind SpeedMPH,Gust SpeedMPH,PrecipitationIn,Events,Conditions,WindDirDegrees,DateUTC
12:00 AM,78.8,73.4,83,29.86,5.0,Variable,2.3,-,N/A,,Unknown,0,2012-10-06 16:00:00
12:30 AM,77.0,73.4,89,29.86,5.0,Variable,1.2,-,N/A,,Unknown,0,2012-10-06 16:30:00
1:00 AM,77.0,73.4,89,29.86,5.0,Variable,2.3,-,N/A,,Unknown,0,2012-10-06 17:00:00
1:30 AM,77.0,73.4,89,29.86,5.0,East,2.3,-,N/A,,Partly Cloudy,90,2012-10-06 17:30:00
2:00 AM,76,73,88,29.85,5,South,2.3,,,,Scattered Clouds,180,2012-10-06 18:00:00
2:00 AM,77.0,73.4,89,29.83,5.0,Variable,2.3,-,N/A,,Partly Cloudy,0,2012-10-06 18:00:00
2:30 AM,75.2,73.4,94,29.83,5.0,South,3.5,-,N/A,,Unknown,190,2012-10-06 18:30:00
3:00 AM,75.2,73.4,94,29.83,5.0,SSW,1.2,-,N/A,,Unknown,200,2012-10-06 19:00:00
4:00 AM,75.2,71.6,89,0.00,5.0,Variable,2.3,-,N/A,,Unknown,0,2012-10-06 20:00:00
4:30 AM,75.2,71.6,89,29.83,5.0,South,3.5,-,N/A,,Partly Cloudy,170,2012-10-06 20:30:00
5:00 AM,74,73,96,29.86,5,SSW,2.3,,,,Scattered Clouds,210,2012-10-06 21:00:00
5:00 AM,75.2,71.6,89,29.86,5.0,Variable,2.3,-,N/A,,Unknown,0,2012-10-06 21:00:00
5:30 AM,75.2,71.6,89,29.86,5.0,Variable,1.2,-,N/A,,Unknown,0,2012-10-06 21:30:00
6:00 AM,75.2,71.6,89,29.86,5.0,South,4.6,-,N/A,,Partly Cloudy,170,2012-10-06 22:00:00
6:30 AM,77.0,71.6,83,29.89,5.6,Variable,1.2,-,N/A,,Partly Cloudy,0,2012-10-06 22:30:00
7:00 AM,78.8,71.6,78,29.89,5.6,Variable,2.3,-,N/A,,Partly Cloudy,0,2012-10-06 23:00:00
7:30 AM,82.4,73.4,74,-9999,5.6,ENE,3.5,-,N/A,,Unknown,60,2012-10-06 23:30:00
8:00 AM,86,73,58,29.92,6,ENE,2.3,,,,Scattered Clouds,70,2012-10-07 00:00:00
8:00 AM,84.2,73.4,70,29.92,5.6,Variable,2.3,-,N/A,,Partly Cloudy,0,2012-10-07 00:00:00
8:30 AM,86.0,73.4,66,29.92,5.6,NNW,3.5,-,N/A,,Partly Cloudy,330,2012-10-07 00:30:00
1:00 PM,93.2,73.4,52,29.80,5.6,NW,13.8,-,N/A,,Partly Cloudy,310,2012-10-07 05:00:00
1:30 PM,91.4,73.4,55,29.77,5.6,NW,12.7,-,N/A,,Partly Cloudy,310,2012-10-07 05:30:00
2:00 PM,93,72,41,29.78,6,West,12.7,,,,Scattered Clouds,270,2012-10-07 06:00:00
2:00 PM,93.2,73.4,52,-9999,5.6,West,12.7,-,N/A,,Unknown,270,2012-10-07 06:00:00
2:30 PM,93.2,73.4,52,29.77,5.6,WSW,11.5,-,N/A,,Partly Cloudy,240,2012-10-07 06:30:00
3:00 PM,93.2,73.4,52,29.74,5.6,West,11.5,-,N/A,,Partly Cloudy,270,2012-10-07 07:00:00
3:30 PM,93.2,75.2,56,29.74,5.6,West,10.4,-,N/A,,Partly Cloudy,260,2012-10-07 07:30:00
4:00 PM,93.2,75.2,56,29.74,5.6,West,9.2,-,N/A,,Partly Cloudy,280,2012-10-07 08:00:00
4:30 PM,91.4,73.4,55,29.74,5.6,West,8.1,-,N/A,,Partly Cloudy,280,2012-10-07 08:30:00
5:00 PM,91,74,50,29.77,6,WNW,8.1,,,,Scattered Clouds,300,2012-10-07 09:00:00
5:00 PM,91.4,73.4,55,29.77,5.6,WNW,8.1,-,N/A,,Partly Cloudy,300,2012-10-07 09:00:00
5:30 PM,89.6,75.2,62,29.77,5.6,NW,10.4,-,N/A,,Partly Cloudy,320,2012-10-07 09:30:00
6:00 PM,87.8,77.0,70,29.77,5.6,NW,8.1,-,N/A,,Partly Cloudy,310,2012-10-07 10:00:00
7:00 PM,86.0,77.0,74,29.80,5.0,North,5.8,-,N/A,,Partly Cloudy,350,2012-10-07 11:00:00
7:30 PM,84.2,77.0,79,29.80,5.0,NNW,4.6,-,N/A,,Partly Cloudy,340,2012-10-07 11:30:00
8:00 PM,84,78,76,29.83,5,NNW,5.8,,,,Scattered Clouds,340,2012-10-07 12:00:00
8:00 PM,84.2,77.0,79,29.83,5.0,NNW,5.8,-,N/A,,Partly Cloudy,340,2012-10-07 12:00:00
8:30 PM,84.2,77.0,79,29.83,5.0,North,5.8,-,N/A,,Partly Cloudy,350,2012-10-07 12:30:00
9:00 PM,84.2,77.0,79,29.83,5.0,NNW,3.5,-,N/A,,Partly Cloudy,340,2012-10-07 13:00:00
9:30 PM,84.2,77.0,79,29.83,5.0,NNW,2.3,-,N/A,,Partly Cloudy,340,2012-10-07 13:30:00
10:00 PM,82.4,75.2,79,29.83,5.0,NE,2.3,-,N/A,,Partly Cloudy,40,2012-10-07 14:00:00
10:30 PM,80.6,77.0,89,29.83,5.0,Variable,2.3,-,N/A,,Partly Cloudy,0,2012-10-07 14:30:00
11:00 PM,79,76,86,29.85,5,ESE,2.3,,,,Scattered Clouds,110,2012-10-07 15:00:00
11:00 PM,80.6,75.2,84,29.83,5.0,ESE,2.3,-,N/A,,Partly Cloudy,110,2012-10-07 15:00:00
11:30 PM,78.8,75.2,89,29.83,5.0,East,3.5,-,N/A,,Partly Cloudy,100,2012-10-07 15:30:00